BAW508 EGLL-LPPT

Flight info

Callsign BAW508
Flight time N/A
Altitude 35000
Route GASGU N866 SAM M195 LORKU DCT POZOF/N0451F370 DCT BALDA DCT ABUPI DCT XAMAX
Aircraft A320/M-SDE3FGHIRWY/LB1

Departure

Time N/A
Airport London Heathrow Airport (EGLL)

Arrival

Time 2026-05-07 18:49
Airport Lisbon Humberto Delgado Airport (LPPT)
Time Latitude Longitude Altitude Speed Heading
2026-05-07 17:52 42.81321 -6.51799 37040 ft 421 kts 225°
2026-05-07 17:52 42.79084 -6.54351 36844 ft 419 kts 225°
2026-05-07 17:53 42.74626 -6.59403 36876 ft 417 kts 225°
2026-05-07 17:53 42.70141 -6.64466 36881 ft 416 kts 225°
2026-05-07 17:54 42.65687 -6.69461 36879 ft 414 kts 225°
2026-05-07 17:54 42.57473 -6.77628 36887 ft 427 kts 211°
2026-05-07 17:55 42.46191 -6.83360 36898 ft 433 kts 207°
2026-05-07 17:55 42.35135 -6.89606 36902 ft 429 kts 210°
2026-05-07 17:56 42.24817 -6.95579 36901 ft 427 kts 209°
2026-05-07 17:56 42.19277 -6.98712 36886 ft 435 kts 208°
2026-05-07 17:57 42.14624 -7.01347 36884 ft 436 kts 208°
2026-05-07 17:57 42.08170 -7.04993 36883 ft 426 kts 208°
2026-05-07 17:58 42.02697 -7.08095 36884 ft 432 kts 209°
2026-05-07 17:58 41.97087 -7.11280 36881 ft 440 kts 208°
2026-05-07 17:59 41.91425 -7.14462 36881 ft 441 kts 208°
2026-05-07 17:59 41.85774 -7.17675 36881 ft 438 kts 213°
2026-05-07 18:00 41.80481 -7.21667 36873 ft 436 kts 215°
2026-05-07 18:00 41.75192 -7.25746 36883 ft 436 kts 215°
2026-05-07 18:01 41.69937 -7.29787 36882 ft 436 kts 215°
2026-05-07 18:01 41.64671 -7.33811 36885 ft 436 kts 215°
2026-05-07 18:02 41.56771 -7.39831 36878 ft 435 kts 215°
2026-05-07 18:03 41.51507 -7.43828 36880 ft 435 kts 215°
2026-05-07 18:03 41.46239 -7.47818 36884 ft 435 kts 215°
2026-05-07 18:04 41.40978 -7.51801 36882 ft 435 kts 215°
2026-05-07 18:04 41.36575 -7.55134 36890 ft 435 kts 215°
2026-05-07 18:05 41.31316 -7.59105 36899 ft 434 kts 215°
2026-05-07 18:05 41.26065 -7.63059 36902 ft 434 kts 215°
2026-05-07 18:06 41.20816 -7.67011 36898 ft 434 kts 215°
2026-05-07 18:06 41.15562 -7.70946 36902 ft 433 kts 215°
2026-05-07 18:07 41.10308 -7.74872 36904 ft 433 kts 215°
2026-05-07 18:07 41.05067 -7.78799 36907 ft 432 kts 215°
2026-05-07 18:08 40.99828 -7.82711 36911 ft 432 kts 215°
2026-05-07 18:08 40.94601 -7.86605 36918 ft 431 kts 215°
2026-05-07 18:09 40.89377 -7.90490 36916 ft 430 kts 215°
2026-05-07 18:09 40.84163 -7.94353 36921 ft 429 kts 215°
2026-05-07 18:10 40.78961 -7.98202 36922 ft 429 kts 215°
2026-05-07 18:10 40.73760 -8.02047 36924 ft 428 kts 215°
2026-05-07 18:11 40.68568 -8.05885 36924 ft 427 kts 214°
2026-05-07 18:11 40.63385 -8.09718 36928 ft 427 kts 214°
2026-05-07 18:12 40.58180 -8.13540 36907 ft 420 kts 214°
2026-05-07 18:12 40.55657 -8.15383 36681 ft 410 kts 214°
2026-05-07 18:12 40.53192 -8.17184 36410 ft 402 kts 214°
2026-05-07 18:12 40.50757 -8.18964 35893 ft 400 kts 214°
2026-05-07 18:13 40.48340 -8.20737 35549 ft 395 kts 214°
2026-05-07 18:13 40.45954 -8.22484 35163 ft 391 kts 214°
2026-05-07 18:13 40.43584 -8.24217 34747 ft 388 kts 214°
2026-05-07 18:13 40.41237 -8.25933 34325 ft 386 kts 214°
2026-05-07 18:14 40.38896 -8.27646 33879 ft 383 kts 214°
2026-05-07 18:14 40.36574 -8.29343 33400 ft 382 kts 213°
2026-05-07 18:14 40.34259 -8.31035 32996 ft 381 kts 213°
2026-05-07 18:14 40.31947 -8.32720 32600 ft 379 kts 213°
2026-05-07 18:15 40.29647 -8.34395 32203 ft 377 kts 213°
2026-05-07 18:15 40.27360 -8.36058 31817 ft 376 kts 213°
2026-05-07 18:15 40.25081 -8.37716 31438 ft 374 kts 213°
2026-05-07 18:15 40.22816 -8.39361 31098 ft 372 kts 213°
2026-05-07 18:16 40.20555 -8.41002 30767 ft 370 kts 213°
2026-05-07 18:16 40.18309 -8.42634 30452 ft 369 kts 212°
2026-05-07 18:16 40.16071 -8.44259 30141 ft 368 kts 212°
2026-05-07 18:16 40.13835 -8.45877 29795 ft 366 kts 212°
2026-05-07 18:17 40.11610 -8.47486 29426 ft 364 kts 212°
2026-05-07 18:17 40.09368 -8.49104 29073 ft 362 kts 212°
2026-05-07 18:17 40.07167 -8.50692 28719 ft 360 kts 212°
2026-05-07 18:17 40.04950 -8.52191 28365 ft 360 kts 205°
2026-05-07 18:18 40.02566 -8.53122 28019 ft 362 kts 194°
2026-05-07 18:18 40.00026 -8.53369 27672 ft 366 kts 182°
2026-05-07 18:18 39.97488 -8.53157 27333 ft 365 kts 181°
2026-05-07 18:18 39.94960 -8.52937 26986 ft 362 kts 181°
2026-05-07 18:19 39.92457 -8.52723 26665 ft 359 kts 181°
2026-05-07 18:19 39.89972 -8.52512 26384 ft 358 kts 181°
2026-05-07 18:19 39.87492 -8.52304 26105 ft 356 kts 181°
2026-05-07 18:19 39.85032 -8.52103 25808 ft 353 kts 181°
2026-05-07 18:20 39.82583 -8.51905 25517 ft 351 kts 181°
2026-05-07 18:20 39.80151 -8.51710 25224 ft 349 kts 181°
2026-05-07 18:20 39.77740 -8.51673 24937 ft 343 kts 189°
2026-05-07 18:20 39.75422 -8.52235 24654 ft 337 kts 200°
2026-05-07 18:21 39.73278 -8.53380 24368 ft 332 kts 211°
2026-05-07 18:21 39.71304 -8.54926 24098 ft 330 kts 213°
2026-05-07 18:21 39.69353 -8.56473 23824 ft 328 kts 213°
2026-05-07 18:21 39.67402 -8.58009 23553 ft 327 kts 213°
2026-05-07 18:22 39.65461 -8.59532 23246 ft 326 kts 212°
2026-05-07 18:22 39.64152 -8.60558 23018 ft 325 kts 212°
2026-05-07 18:22 39.61570 -8.62582 22585 ft 324 kts 212°
2026-05-07 18:22 39.59644 -8.64093 22263 ft 323 kts 212°
2026-05-07 18:23 39.57727 -8.65595 21944 ft 322 kts 212°
2026-05-07 18:23 39.55811 -8.67096 21639 ft 321 kts 212°
2026-05-07 18:23 39.53900 -8.68594 21330 ft 321 kts 212°
2026-05-07 18:23 39.51996 -8.70087 21024 ft 320 kts 212°
2026-05-07 18:24 39.50094 -8.71578 20726 ft 319 kts 211°
2026-05-07 18:24 39.48198 -8.73064 20434 ft 318 kts 211°
2026-05-07 18:24 39.46304 -8.74542 20129 ft 318 kts 211°
2026-05-07 18:24 39.44416 -8.76013 19841 ft 317 kts 211°
2026-05-07 18:25 39.42531 -8.77484 19552 ft 316 kts 211°
2026-05-07 18:25 39.40657 -8.78974 19264 ft 315 kts 214°
2026-05-07 18:25 39.38995 -8.80818 18982 ft 316 kts 226°
2026-05-07 18:25 39.37550 -8.82956 18708 ft 315 kts 227°
2026-05-07 18:26 39.36110 -8.85088 18426 ft 315 kts 227°
2026-05-07 18:26 39.34663 -8.87218 18137 ft 315 kts 226°
2026-05-07 18:26 39.33218 -8.89334 17818 ft 313 kts 226°
2026-05-07 18:26 39.31781 -8.91440 17498 ft 312 kts 226°
2026-05-07 18:27 39.30351 -8.93533 17184 ft 310 kts 226°
2026-05-07 18:27 39.28929 -8.95613 16902 ft 308 kts 226°
2026-05-07 18:27 39.27515 -8.97680 16638 ft 307 kts 226°
2026-05-07 18:27 39.26559 -8.99076 16464 ft 306 kts 226°
2026-05-07 18:28 39.24693 -9.01795 16127 ft 304 kts 224°
2026-05-07 18:28 39.23063 -9.03478 15874 ft 300 kts 211°
2026-05-07 18:28 39.21309 -9.04935 15620 ft 299 kts 211°
2026-05-07 18:28 39.19534 -9.06396 15368 ft 298 kts 211°
2026-05-07 18:29 39.17789 -9.07829 15124 ft 296 kts 211°
2026-05-07 18:29 39.16049 -9.09256 14879 ft 296 kts 211°
2026-05-07 18:29 39.14316 -9.10679 14637 ft 295 kts 211°
2026-05-07 18:29 39.12585 -9.12101 14394 ft 295 kts 211°
2026-05-07 18:30 39.10861 -9.13516 14160 ft 294 kts 211°
2026-05-07 18:30 39.09135 -9.14929 13912 ft 293 kts 211°
2026-05-07 18:30 39.07415 -9.16339 13671 ft 293 kts 211°
2026-05-07 18:30 39.05701 -9.17744 13413 ft 292 kts 211°
2026-05-07 18:31 39.03994 -9.19142 13142 ft 290 kts 211°
2026-05-07 18:31 39.02287 -9.20538 12877 ft 290 kts 211°
2026-05-07 18:31 39.00594 -9.21923 12615 ft 288 kts 211°
2026-05-07 18:31 38.98908 -9.23303 12361 ft 286 kts 211°
2026-05-07 18:32 38.97234 -9.24672 12099 ft 285 kts 211°
2026-05-07 18:32 38.95564 -9.26037 11837 ft 283 kts 211°
2026-05-07 18:32 38.93904 -9.27389 11587 ft 283 kts 211°
2026-05-07 18:32 38.92247 -9.28740 11338 ft 281 kts 211°
2026-05-07 18:33 38.90600 -9.30082 11094 ft 280 kts 211°
2026-05-07 18:33 38.88959 -9.31420 10865 ft 279 kts 211°
2026-05-07 18:33 38.87326 -9.32750 10621 ft 277 kts 211°
2026-05-07 18:33 38.85699 -9.34073 10376 ft 277 kts 211°
2026-05-07 18:34 38.84074 -9.35393 10130 ft 275 kts 211°
2026-05-07 18:34 38.82459 -9.36706 9898 ft 275 kts 211°
2026-05-07 18:34 38.80848 -9.38015 9637 ft 274 kts 211°
2026-05-07 18:34 38.79245 -9.39319 9374 ft 272 kts 211°
2026-05-07 18:35 38.77647 -9.40620 9109 ft 272 kts 211°
2026-05-07 18:35 38.76053 -9.41916 8851 ft 271 kts 211°
2026-05-07 18:35 38.74465 -9.43202 8585 ft 270 kts 211°
2026-05-07 18:35 38.73391 -9.44070 8411 ft 270 kts 212°
2026-05-07 18:36 38.71295 -9.45766 8074 ft 268 kts 212°
2026-05-07 18:36 38.70235 -9.46623 7969 ft 268 kts 212°
2026-05-07 18:36 38.68662 -9.47896 7944 ft 268 kts 212°
2026-05-07 18:36 38.67084 -9.49173 7950 ft 269 kts 212°
2026-05-07 18:37 38.65502 -9.50454 7949 ft 269 kts 212°
2026-05-07 18:37 38.63922 -9.51733 7946 ft 267 kts 212°
2026-05-07 18:37 38.62392 -9.52970 7944 ft 253 kts 212°
2026-05-07 18:37 38.60941 -9.54141 7943 ft 240 kts 210°
2026-05-07 18:38 38.59415 -9.54922 7949 ft 236 kts 191°
2026-05-07 18:38 38.57778 -9.54992 7947 ft 237 kts 172°
2026-05-07 18:38 38.56153 -9.54585 7942 ft 238 kts 170°
2026-05-07 18:38 38.54528 -9.54169 7947 ft 238 kts 170°
2026-05-07 18:39 38.52915 -9.53693 7943 ft 239 kts 160°
2026-05-07 18:39 38.51521 -9.52494 7942 ft 243 kts 133°
2026-05-07 18:39 38.50717 -9.50597 7837 ft 247 kts 105°
2026-05-07 18:39 38.50730 -9.48410 7531 ft 251 kts 75°
2026-05-07 18:40 38.51400 -9.46340 7231 ft 253 kts 67°
2026-05-07 18:40 38.52110 -9.44327 7105 ft 244 kts 67°
2026-05-07 18:40 38.52793 -9.42377 6989 ft 237 kts 68°
2026-05-07 18:40 38.53451 -9.40486 6849 ft 228 kts 67°
2026-05-07 18:41 38.54075 -9.38695 6745 ft 214 kts 68°
2026-05-07 18:41 38.54671 -9.36981 6470 ft 209 kts 68°
2026-05-07 18:41 38.55255 -9.35288 6126 ft 208 kts 68°
2026-05-07 18:41 38.55832 -9.33611 5853 ft 202 kts 67°
2026-05-07 18:42 38.56380 -9.32016 5616 ft 189 kts 67°
2026-05-07 18:42 38.56880 -9.30556 5374 ft 170 kts 66°
2026-05-07 18:42 38.57339 -9.29218 5106 ft 160 kts 66°
2026-05-07 18:42 38.57783 -9.27925 4732 ft 158 kts 65°
2026-05-07 18:43 38.58222 -9.26642 4332 ft 157 kts 64°
2026-05-07 18:43 38.58655 -9.25372 4020 ft 153 kts 64°
2026-05-07 18:43 38.59128 -9.24141 4009 ft 156 kts 50°
2026-05-07 18:43 38.59939 -9.23293 3880 ft 150 kts 19°
2026-05-07 18:44 38.60896 -9.22784 3711 ft 148 kts 18°
2026-05-07 18:44 38.61846 -9.22280 3529 ft 148 kts 17°
2026-05-07 18:44 38.62791 -9.21777 3337 ft 147 kts 18°
2026-05-07 18:44 38.63726 -9.21280 3134 ft 145 kts 16°
2026-05-07 18:45 38.64656 -9.20784 2945 ft 144 kts 17°
2026-05-07 18:45 38.65574 -9.20296 2728 ft 143 kts 17°
2026-05-07 18:45 38.66489 -9.19808 2537 ft 142 kts 15°
2026-05-07 18:45 38.67396 -9.19325 2347 ft 141 kts 17°
2026-05-07 18:46 38.68304 -9.18841 2144 ft 141 kts 16°
2026-05-07 18:46 38.69220 -9.18353 1953 ft 140 kts 17°
2026-05-07 18:46 38.70117 -9.17875 1763 ft 140 kts 17°
2026-05-07 18:46 38.71016 -9.17396 1569 ft 140 kts 15°
2026-05-07 18:47 38.71912 -9.16917 1374 ft 140 kts 16°
2026-05-07 18:47 38.72810 -9.16438 1194 ft 139 kts 15°
2026-05-07 18:47 38.73695 -9.15965 999 ft 137 kts 17°
2026-05-07 18:47 38.74596 -9.15485 810 ft 142 kts 18°
2026-05-07 18:48 38.75496 -9.14999 624 ft 144 kts 19°
2026-05-07 18:48 38.76405 -9.14512 427 ft 140 kts 16°
2026-05-07 18:48 38.77277 -9.14052 360 ft 123 kts 21°
2026-05-07 18:48 38.77919 -9.13713 366 ft 77 kts 22°
2026-05-07 18:49 38.78292 -9.13465 364 ft 52 kts 43°
2026-05-07 18:49 38.78340 -9.13265 360 ft 21 kts 165°
2026-05-07 18:49 38.78237 -9.13310 361 ft 14 kts 201°
2026-05-07 18:49 38.78137 -9.13363 362 ft 17 kts 201°
2026-05-07 18:50 38.78026 -9.13422 357 ft 12 kts 205°
2026-05-07 18:50 38.77932 -9.13398 352 ft 17 kts 167°